TIME,DELAY(SENSOR),PRES,OXYGEN,RAWTEMP,T(OPTODE),TCPHASE,FLUOR,BETA(BETA700),BETA(BETA412),BETA(BETA440),CDOM,C(CSC),ED(ED412.40),ED(ED444.00),ED(ED489.70),ED(ED554.30),LU(LU411.80),LU(LU443.40),LU(LU489.60),LU(LU554.10),COMP,TILTX,TILTY,CHECK
1353815536,5806,886.3300170898438000,45.1944999694824200,664.2686157226562000,4.4873428344726560,54.2798118591308600,53,99,84,78,80,15138,2147754432,2147420690,2148009746,2147873846,2147642642,2147060452,2148257865,2147196644,1530,4,13,39140
1353819132,5807,971.5399780273438000,48.5285186767578100,672.3864135742188000,4.2193360328674320,53.9009208679199200,52,98,85,79,81,15136,2147759250,2147422326,2148011337,2147875739,2147642825,2147056484,2148256448,2147195931,3541,4,13,36730
1353822732,5809,977.6400146484375000,49.1613693237304700,674.4276733398438000,4.1518211364746090,53.8441696166992200,53,100,87,80,81,15135,2147756178,2147419885,2148008640,2147872850,2147643922,2147061888,2148261193,2147196617,430,4,13,17339
1353826332,5807,988.4000244140625000,48.8671607971191400,674.1760253906250000,4.1601510047912600,53.8766517639160160,52,100,87,79,81,15136,2147755081,2147421723,2148014052,2147874139,2147642578,2147059300,2148259017,2147194852,327,4,13,35371
1353829932,5810,993.9799804687500000,49.2245101928710940,674.9257812500000000,4.1353421211242680,53.8379783630371100,52,101,88,78,81,15134,2147756269,2147421248,2148009746,2147874102,2147644836,2147062326,2148264128,2147195629,293,4,13,26136
1353833532,5807,995.5800170898438000,48.8925209045410160,674.3756103515625000,4.1535449028015140,53.8796806335449200,52,99,88,78,81,15137,2147753938,2147419026,2148009481,2147873572,2147644205,2147057444,2148261696,2147193481,425,4,13,36549
1353837132,5811,1001.3400268554688000,48.5322685241699200,673.8909912109375000,4.1695771217346190,53.9229202270507800,53,100,89,79,80,15131,2147758528,2147418742,2148008475,2147876397,2147644205,2147058733,2148257755,2147196662,241,4,13,9622
1353840732,5811,989.2199707031250000,48.9741897583007800,675.6702880859375000,4.1107039451599120,53.8855400085449200,53,101,87,79,81,15136,2147758573,2147421394,2148008969,2147878409,2147643876,2147059328,2148256484,2147194697,422,4,13,4203
1353844332,5810,996.9299926757812000,49.0550804138183600,676.0076293945312000,4.0995388031005860,53.8796195983886700,52,97,87,78,81,15137,2147756973,2147420534,2148006546,2147876745,2147638317,2147060772,2148261677,2147194633,3239,4,13,45265
1353847932,5809,1002.8800048828125000,48.8911209106445300,675.1510009765625000,4.1278901100158690,53.8846092224121100,52,98,90,78,81,15139,2147757714,2147422573,2148010971,2147873316,2147642742,2147059858,2148262061,2147195876,389,4,13,7425
1353851532,5811,996.2299804687500000,48.5073204040527340,675.8176879882812000,4.1058249473571780,53.9508895874023440,52,98,86,79,81,15134,2147755894,2147417115,2148005961,2147880914,2147646454,2147059035,2148266742,2147195364,200,4,13,2046
1353855132,5808,998.1300048828125000,48.5663604736328100,675.9094848632812000,4.1027832031250000,53.9396896362304700,53,100,88,80,82,15133,2147756763,2147420434,2148010688,2147874651,2147645604,2147060598,2148262116,2147197339,3509,4,13,82
1353858732,5808,1004.9000244140625000,49.2391891479492200,676.4575195312500000,4.0846462249755860,53.8569602966308600,52,99,87,78,82,15130,2147758454,2147419163,2148008365,2147875739,2147643657,2147055414,2148255460,2147197284,3350,4,13,1973
1353862332,5809,1009.9899902343750000,48.7646484375000000,675.1190185546875000,4.1289501190185550,53.9084205627441400,53,99,89,78,80,15129,2147753965,2147419190,2148009508,2147871826,2147642304,2147060928,2148262957,2147195026,145,4,13,62845
1353865932,5811,1008.3400268554688000,48.2911682128906250,675.0767822265625000,4.1303439140319820,53.9715118408203100,53,98,84,79,81,15129,2147757915,2147417974,2148011922,2147877376,2147644370,2147060982,2148257856,2147201005,241,4,13,11799
1353869532,5811,1010.9600219726562000,48.7224502563476560,675.5316772460938000,4.1152920722961430,53.9188804626464840,52,101,88,79,82,15131,2147755026,2147422912,2148012498,2147873408,2147642468,2147059556,2148262720,2147196516,3228,4,13,60401
1353873132,5808,1012.7100219726562000,48.7685089111328100,675.4569702148438000,4.1177639961242680,53.9092483520507800,52,98,88,80,82,15127,2147755090,2147420205,2148009545,2147877403,2147643858,2147061842,2148262418,2147201984,20,5,13,30596
1353876732,5811,1007.6599731445312000,48.0408287048339840,674.2861938476562000,4.1565041542053220,53.9955711364746100,52,101,87,78,79,15126,2147758171,2147421997,2148011163,2147873152,2147644635,2147061147,2148263414,2147191835,141,4,13,27970
1353880332,5808,1008.4600219726562000,48.0954704284668000,674.9146728515625000,4.1357097625732420,53.9942092895507800,53,99,89,78,83,15124,2147754980,2147418569,2148010194,2147872228,2147645924,2147054500,2148262262,2147196315,237,4,13,45886
1353883932,5806,1008.1099853515625000,48.0290603637695300,675.1179199218750000,4.1289858818054200,54.0080909729003900,53,98,84,79,82,15126,2147756096,2147421860,2148009819,2147877467,2147640009,2147061796,2148264420,2147197668,191,4,13,32930
1353887532,5810,1009.6199951171875000,48.3612709045410160,674.3416137695312000,4.1546711921691895,53.9562797546386700,52,99,90,79,81,15123,2147758180,2147420553,2148011373,2147880722,2147638226,2147061677,2148257133,2147193865,2998,4,13,60086
1353891132,5806,1009.5599975585938000,48.3175506591796900,674.9475097656250000,4.1346230506896970,53.9656906127929700,53,99,91,79,80,15124,2147757504,2147421403,2148011026,2147875510,2147643218,2147058806,2148265462,2147196233,3133,4,13,29692
1353894732,5808,1007.5399780273438000,48.5727195739746100,676.3839111328125000,4.0870838165283200,53.9501113891601560,53,102,85,79,82,15121,2147756041,2147420662,2148011794,2147875501,2147643126,2147062893,2148261211,2147193901,3583,4,13,9700
1353898332,5809,1004.2199707031250000,48.6616210937500000,676.2537841796875000,4.0913891792297360,53.9358215332031250,53,100,85,79,81,15121,2147759524,2147424649,2148009792,2147876251,2147643620,2147059904,2148256173,2147195373,3461,4,13,11591
1353901932,5806,1011.2700195312500000,49.2842407226562500,676.9313964843750000,4.0689539909362790,53.8593902587890600,52,111,87,80,81,15120,2147756425,2147423341,2148010651,2147873033,2147644361,2147062564,2148265197,2147195474,67,4,13,56796
1353905532,5810,1009.5999755859375000,49.3061599731445300,677.0291137695312000,4.0657181739807130,53.8535499572753900,52,101,90,79,81,15120,2147762102,2147423405,2148013677,2147874861,2147643648,2147062793,2148260525,2147201874,179,4,13,7427
1353909132,5810,1008.4699707031250000,49.0281410217285160,677.3372192382812000,4.0555171966552730,53.8984489440918000,52,100,88,79,81,15124,2147756772,2147420827,2148011821,2147874633,2147643648,2147063305,2148257974,2147195035,67,4,13,40795
1353912732,5810,1014.3300170898438000,49.0352096557617200,676.1663818359375000,4.0942797660827640,53.8835105895996100,52,97,85,81,79,15119,2147755949,2147419986,2148009298,2147876397,2147640073,2147059172,2148261540,2147197641,6,5,13,3719
1353916332,5809,1021.0800170898438000,48.8858909606933600,675.8771972656250000,4.1038551330566410,53.8983383178710940,53,99,87,78,82,15119,2147757485,2147420224,2148011492,2147874852,2147643364,2147057334,2148259556,2147194889,105,4,13,7736
1353919932,5805,1013.3599853515625000,48.4204101562500000,674.9252929687500000,4.1353588104248050,53.9510002136230500,51,100,89,79,81,15120,2147754742,2147422692,2148008045,2147874194,2147641874,2147060964,2148261522,2147196132,156,4,13,31524
1353923532,5809,1013.3300170898438000,48.1231384277343750,675.5518798828125000,4.1146221160888670,53.9999618530273440,52,99,85,78,81,15117,2147760832,2147421741,2148009691,2147874477,2147642331,2147061174,2148262784,2147197028,413,4,13,50985
1353927132,5809,1013.8499755859375000,48.8207702636718750,676.4260864257812000,4.0856819152832030,53.9141693115234400,53,99,84,78,81,15116,2147758107,2147423195,2148008429,2147873810,2147640795,2147063341,2148260690,2147195520,144,4,13,17421
1353930732,5807,1008.6300048828125000,48.8666305541992200,677.4373168945312000,4.0522022247314450,53.9204292297363300,53,98,87,79,81,15116,2147757604,2147418706,2148009426,2147873499,2147639835,2147062921,2148263817,2147198281,3468,4,13,19606
1353934332,5806,995.8400268554688000,48.9553413391113300,678.2905273437500000,4.0239410400390625,53.9167785644531250,52,101,91,79,81,15118,2147754678,2147421449,2148008064,2147874724,2147640841,2147060013,2148262729,2147197147,603,4,13,47211
1353937932,5810,1004.2700195312500000,49.5525207519531250,678.5656127929688000,4.0148258209228520,53.8406105041503900,52,99,88,80,81,15117,2147757632,2147423341,2148011620,2147872804,2147644132,2147058230,2148263222,2147198144,3440,4,13,51631
1353941532,5804,1010.3300170898438000,49.8964195251464840,678.6068115234375000,4.0134601593017580,53.7911491394043000,52,100,88,78,81,15118,2147756160,2147417563,2148011254,2147873938,2147644836,2147057389,2148259264,2147197046,3176,4,13,3172
1353945132,5807,1012.6500244140625000,48.9720916748046900,677.6356811523438000,4.0456280708312990,53.9047889709472660,53,99,89,80,81,15116,2147754468,2147419437,2148009179,2147875830,2147643556,2147060489,2148262921,2147195355,188,4,13,60372
1353948732,5808,1019.6199951171875000,48.6956710815429700,675.9287109375000000,4.1021499633789060,53.9293403625488300,52,99,88,78,81,15117,2147758217,2147421266,2148006582,2147872786,2147641234,2147058194,2148261933,2147198427,199,4,13,42746
1353952332,5811,1023.0100097656250000,48.4424400329589840,675.9534912109375000,4.1013298034667970,53.9605407714843750,53,99,88,79,81,15117,2147756717,2147420397,2148011126,2147876443,2147639826,2147058413,2148261440,2147199917,360,4,13,63741
1353955932,5810,1019.7800292968750000,47.8569908142089840,675.6456298828125000,4.1115207672119140,54.0409317016601560,51,98,85,78,81,15113,2147756827,2147420150,2148009014,2147877632,2147641993,2147061988,2148262985,2147195638,403,4,13,6388
1353959155,5809,1023.2100219726562000,48.2091598510742200,675.2470092773438000,4.1247119903564450,53.9859504699707000,53,100,83,78,82,15122,2147756452,2147421997,2148005842,2147876342,2147642651,2147056804,2148262116,2147196955,3392,4,13,49521
